Location: Lourdes
(43.1000°N, 0.0500°W)
Time: 15:20:52
(UTC+00:00)

Sich 1 - Visible Passes

Search period start: 17 April 2021 00:00
Search period end: 27 April 2021 00:00
Orbit: 593 x 626 km, 82.5° (Epoch: 16 April)

Date Brightness Start Highest point End Pass type
(mag) Time Alt. Az. Time Alt. Az. Time Alt. Az.
17 Apr 5.8 22:06:26 10° NE 22:06:32 10° NE 22:06:32 10° NE visible
17 Apr 5.8 23:42:39 10° NNW 23:43:30 15° NNW 23:43:30 15° NNW visible
18 Apr 5.5 22:19:54 10° NNE 22:20:54 15° NNE 22:20:54 15° NNE visible
18 Apr 5.9 23:57:21 10° NNW 23:57:51 13° NW 23:57:51 13° NW visible
19 Apr 5.3 22:33:49 10° N 22:35:16 19° NNE 22:35:16 19° NNE visible
20 Apr 5.2 22:47:59 10° N 22:49:39 23° N 22:49:39 23° N visible
21 Apr 5.6 21:26:59 10° NE 21:27:05 10° NE 21:27:05 10° NE visible
21 Apr 5.2 23:02:21 10° NNW 23:04:02 23° NNW 23:04:02 23° NNW visible
22 Apr 5.2 21:39:58 10° NNE 21:41:29 16° NE 21:41:29 16° NE visible
22 Apr 5.4 23:16:55 10° NNW 23:18:26 20° NW 23:18:26 20° NW visible
23 Apr 4.8 21:53:44 10° NNE 21:55:53 23° NE 21:55:53 23° NE visible
23 Apr 5.7 23:31:47 10° NW 23:32:51 15° NW 23:32:51 15° NW visible
24 Apr 4.4 22:07:48 10° N 22:10:19 32° NNE 22:10:19 32° NNE visible
25 Apr 4.3 22:22:05 10° N 22:24:45 38° NNW 22:24:45 38° NNW visible
26 Apr 5.0 21:00:08 10° NNE 21:02:14 15° ENE 21:02:14 15° ENE visible
26 Apr 4.6 22:36:33 10° NNW 22:39:12 33° NW 22:39:12 33° NW visible
